"Time","Temp","Dewpoint","Humidity","Pressure","Direction","Speed","Gust","Precip","PrecipRate"
"00:04:56","74.5","73","95","30.13","333","0","0","0.00","0.00"
"00:09:58","74.4","72.9","95","30.13","333","0","0","0.00","0.00"
"00:14:56","74.4","72.9","95","30.13","333","0","0","0.00","0.00"
"00:19:59","74.2","72.7","95","30.13","333","0","0","0.00","0.00"
"00:24:55","74.2","72.8","95.3","30.13","333","0","0","0.00","0.00"
"00:29:58","74.1","72.9","96","30.13","333","0","0","0.00","0.00"
"00:34:56","74.1","72.9","96","30.13","333","0","0","0.00","0.00"
"00:39:58","74","72.8","96","30.13","333","0","0","0.00","0.00"
"00:44:59","74","72.8","96","30.14","333","0","0","0.00","0.00"
"00:49:58","73.9","72.7","96","30.14","333","0","0","0.00","0.00"
"00:54:59","73.9","72.7","96","30.14","333","0","0","0.00","0.00"
"00:59:59","73.9","72.7","96","30.14","333","0","0","0.00","0.00"
"01:04:58","73.9","72.7","96","30.14","333","0","0","0.00","0.00"
"01:09:56","73.9","72.7","96","30.14","333","0","0","0.00","0.00"
"01:14:56","73.9","72.7","96","30.14","333","0","0","0.00","0.00"
"01:19:56","73.8","72.6","96","30.13","333","0","0","0.00","0.00"
"01:24:56","73.8","72.6","96","30.13","333","0","0","0.00","0.00"
"01:29:57","73.7","72.5","96","30.13","333","0","0","0.00","0.00"
"01:34:58","73.7","72.5","96","30.13","333","0","0","0.00","0.00"
"01:39:57","73.6","72.4","96","30.13","333","0","0","0.00","0.00"
"01:44:56","73.6","72.4","96","30.13","333","0","0","0.00","0.00"
"01:49:57","73.6","72.4","96.2","30.13","333","0","0","0.00","0.00"
"01:54:56","73.6","72.7","97","30.13","333","0","0","0.00","0.00"
"01:59:59","73.6","72.7","97","30.13","333","0","0","0.00","0.00"
"02:04:56","73.5","72.4","96.2","30.13","333","0","0","0.00","0.00"
"02:09:59","73.5","72.6","96.9","30.13","333","0","0","0.00","0.00"
"02:14:56","73.5","72.6","96.9","30.13","333","0","0","0.00","0.00"
"02:19:58","73.4","72.3","96.4","30.13","333","0","0","0.00","0.00"
"02:24:58","73.4","72.5","97","30.13","333","0","0","0.00","0.00"
"02:29:59","73.3","72.3","96.7","30.13","333","0","0","0.00","0.00"
"02:34:57","73.3","72.4","97","30.13","333","0","0","0.00","0.00"
"02:39:57","73.2","72.3","97","30.13","333","0","0","0.00","0.00"
"02:44:57","73.2","72.3","97","30.13","333","0","0","0.00","0.00"
"02:49:57","73.2","72.3","97","30.13","333","0","0","0.00","0.00"
"02:54:56","73.1","72.2","97","30.13","333","0","0","0.00","0.00"
"02:59:57","73.1","72.2","97","30.13","333","0","0","0.00","0.00"
"03:04:57","73.1","72.2","97","30.13","333","0","0","0.00","0.00"
"03:09:56","73","72.1","97","30.13","333","0","0","0.00","0.00"
"03:14:57","73","72.1","97","30.13","333","0","0","0.00","0.00"
"03:19:57","73","72.1","97","30.13","333","0","0","0.00","0.00"
"03:24:56","72.9","72","97","30.13","333","0","0","0.00","0.00"
"03:29:56","72.9","72","97","30.13","333","0","0","0.00","0.00"
"03:34:57","72.8","71.9","97","30.12","333","0","1","0.00","0.00"
"03:39:57","72.8","71.9","97","30.12","333","0","1.2","0.00","0.00"
"03:44:56","72.8","71.8","97","30.12","333","0","0","0.00","0.00"
"03:49:58","72.7","71.8","97","30.12","333","0.1","1.2","0.00","0.00"
"03:54:59","72.7","71.8","97","30.12","333","0","1.2","0.00","0.00"
"03:59:59","72.7","71.8","97","30.12","333","0.7","2.3","0.00","0.00"
"04:04:58","72.6","71.7","97","30.12","333","0.2","1.2","0.00","0.00"
"04:09:58","72.6","71.7","97","30.12","333","0.1","2","0.00","0.00"
"04:14:57","72.6","71.7","97","30.12","333","0.2","2.3","0.00","0.00"
"04:19:59","72.5","71.6","97","30.12","333","0","1.2","0.00","0.00"
"04:24:57","72.4","71.5","97","30.12","333","0","0","0.00","0.00"
"04:29:58","72.3","71.4","97","30.12","333","0.2","1.2","0.00","0.00"
"04:34:58","72.3","71.4","97","30.12","333","0","0","0.00","0.00"
"04:39:57","72.3","71.4","97","30.12","333","0","0","0.00","0.00"
"04:44:56","72.2","71.3","97","30.12","333","0","0","0.00","0.00"
"04:49:59","72.2","71.3","97","30.12","333","0","0","0.00","0.00"
"04:54:58","72.1","71.2","97","30.12","333","0","0","0.00","0.00"
"04:59:59","72.1","71.2","97","30.12","333","0","0","0.00","0.00"
"05:04:58","72","71.1","97","30.12","333","0","0","0.00","0.00"
"05:09:57","71.9","71","97","30.12","333","0","0","0.00","0.00"
"05:14:56","71.9","71","97","30.12","333","0","0","0.00","0.00"
"05:19:56","71.8","70.9","97","30.12","333","0","0","0.00","0.00"
"05:24:57","71.8","70.9","97","30.12","333","0","0","0.00","0.00"
"05:29:57","71.7","70.8","97","30.12","333","0","0","0.00","0.00"
"05:34:59","71.7","70.8","97","30.12","333","0","0","0.00","0.00"
"05:39:57","71.7","70.8","97","30.12","333","0","0","0.00","0.00"
"05:44:59","71.7","70.8","97","30.13","333","0","0","0.00","0.00"
"05:49:59","71.7","70.8","97","30.13","333","0","0","0.00","0.00"
"05:54:57","71.6","70.7","97","30.13","333","0","1.2","0.00","0.00"
"05:59:56","71.5","70.6","97","30.13","333","0","0","0.00","0.00"
"06:04:55","71.5","70.6","97","30.13","333","0","0","0.00","0.00"
"06:09:57","71.4","70.5","97","30.13","333","0","0","0.00","0.00"
"06:14:57","71.4","70.5","97","30.13","333","0","0","0.00","0.00"
"06:19:58","71.3","70.4","97","30.13","333","0","0","0.00","0.00"
"06:24:57","71.3","70.4","97","30.13","333","0","0","0.00","0.00"
"06:29:59","71.3","70.4","97","30.14","333","0.1","1.2","0.00","0.00"
"06:34:59","71.2","70.3","97","30.14","333","0","1","0.00","0.00"
"06:39:58","71.2","70.3","97","30.14","333","0","1.2","0.00","0.00"
"06:44:58","71.1","70.3","97.1","30.15","333","0.1","1.2","0.00","0.00"
"06:49:58","71.1","70.5","98","30.15","333","0.1","1.2","0.00","0.00"
"06:54:57","71.1","70.5","97.8","30.15","333","0","1.2","0.00","0.00"
"06:59:56","71.1","70.3","97.4","30.15","333","0.1","1.2","0.00","0.00"
"07:04:57","71.1","70.5","98","30.15","333","0","0","0.00","0.00"
"07:09:56","71.1","70.5","98","30.15","333","0","0","0.00","0.00"
"07:14:58","71.2","70.6","98","30.17","333","0","0","0.00","0.00"
"07:19:58","71.4","70.8","98","30.17","333","0","0","0.00","0.00"
"07:24:59","71.5","70.9","98","30.17","333","0","0","0.00","0.00"
"07:29:57","71.7","71.1","98","30.17","333","0","0","0.00","0.00"
"07:34:58","71.8","71.2","98","30.17","333","0","0","0.00","0.00"
"07:39:58","72","71.4","98","30.17","333","0","2.3","0.00","0.00"
"07:44:57","72.2","71.6","98","30.17","333","0.4","2.3","0.00","0.00"
"07:49:57","72.3","71.7","98","30.17","333","0.4","2.3","0.00","0.00"
"07:54:58","72.5","71.9","98","30.17","333","0.3","2.3","0.00","0.00"
"07:59:57","72.7","72.1","98","30.18","333","0.3","2.3","0.00","0.00"
"08:04:57","73","72.3","97.6","30.18","333","1","3.5","0.00","0.00"
"08:09:59","73.2","72.6","98","30.18","336","1.3","4","0.00","0.00"
"08:14:59","73.5","72.7","97.3","30.18","340","1.2","4","0.00","0.00"
"08:19:59","73.8","72.9","97","30.18","340","0.7","3.5","0.00","0.00"
"08:24:57","74.1","72.9","96","30.18","341","1.1","3.5","0.00","0.00"
"08:29:56","74.2","72.9","95.4","30.18","339","1.2","5","0.00","0.00"
"08:34:58","74.5","73.2","95.7","30.18","331","1","4.6","0.00","0.00"
"08:39:59","74.8","73.3","95","30.18","329","0.7","4","0.00","0.00"
"08:44:56","75.1","73.6","95","30.18","338","1.1","3.5","0.00","0.00"
"08:49:59","75.4","73.6","94.2","30.18","331","1.5","4","0.00","0.00"
"08:53:24","75.6","73.8","94","30.18","330","0.2","3.5","0.00","0.00"
"09:09:57","76.7","74.2","92.2","30.18","338","0.4","5","0.00","0.00"
"09:14:56","77.3","74.4","91","30.18","352","0.7","2.3","0.00","0.00"
"09:19:56","77.9","74.7","89.8","30.18","355","0.3","2.3","0.00","0.00"
"09:24:58","78.5","74.8","88.7","30.18","355","0.4","2.3","0.00","0.00"
"09:29:58","78.9","75","87.8","30.18","21","0.6","3","0.00","0.00"
"09:34:57","79.1","74.8","86.7","30.18","336","1.5","4","0.00","0.00"
"09:39:58","79.4","75.3","87.4","30.18","338","0.8","3.5","0.00","0.00"
"09:44:57","79.7","75.2","86.2","30.18","343","1","4","0.00","0.00"
"09:49:58","80.2","75.4","85.5","30.18","19","0.5","2.3","0.00","0.00"
"09:54:59","80.4","75.5","84.8","30.18","56","0.3","2.3","0.00","0.00"
"09:59:57","80.6","75.8","85.3","30.19","65","0.6","4","0.00","0.00"
"10:04:59","81.1","76.1","84.8","30.19","20","0.7","3.5","0.00","0.00"
"10:09:57","81.6","76.4","84.3","30.19","12","0.7","3.5","0.00","0.00"
"10:14:59","82.1","76.5","83.1","30.19","67","1","3.5","0.00","0.00"
"10:19:57","82.1","76.1","82.1","30.19","110","1","4","0.00","0.00"
"10:24:57","82.1","76","81.7","30.19","341","1.4","5","0.00","0.00"
"10:29:58","82.2","76.3","82.2","30.19","345","1.1","4","0.00","0.00"
"10:34:58","82.5","75.8","80.4","30.19","327","2.3","5","0.00","0.00"
"10:39:56","82.5","76","80.7","30.19","319","1.5","4","0.00","0.00"
"10:44:57","82.7","76.4","81.6","30.19","287","2","4","0.00","0.00"
"10:49:56","82.9","76.4","80.8","30.19","326","2.1","5","0.00","0.00"
"10:54:58","83","76.4","80.5","30.19","348","1.3","5","0.00","0.00"
"10:59:58","83.6","77.2","81.1","30.19","346","1.8","5","0.00","0.00"
"11:04:57","83.8","76.8","79.3","30.19","301","1.3","3.5","0.00","0.00"
"11:09:59","84","76.7","79","30.19","267","0.7","4","0.00","0.00"
"11:14:59","84.4","77.5","80","30.19","221","1.8","4","0.00","0.00"
"11:19:56","84.9","77.7","79.3","30.19","217","1.1","3.5","0.00","0.00"
"11:24:56","85.2","78","79","30.19","200","0.9","3.5","0.00","0.00"
"11:29:56","85.2","77.2","77","30.19","263","1.9","6","0.00","0.00"
"11:34:56","84.8","76.9","77.2","30.19","345","3","5.8","0.00","0.00"
"11:39:58","84.7","77.1","78.1","30.19","234","1.3","3.5","0.00","0.00"
"11:44:58","84.9","77.3","77.9","30.19","294","1.3","5","0.00","0.00"
"11:49:58","85.1","77","76.9","30.19","334","2","5","0.00","0.00"
"11:54:56","85.1","77.4","77.6","30.19","276","0.8","2.3","0.00","0.00"
"11:59:58","85.5","77.6","77.1","30.19","321","1.5","4","0.00","0.00"
"12:04:57","85.8","77.3","75.8","30.19","348","1.7","5","0.00","0.00"
"12:09:59","86.2","77.9","76.5","30.19","334","2","6","0.00","0.00"
"12:14:55","86.6","78","75.9","30.19","341","1.9","5","0.00","0.00"
"12:19:57","87","78.5","76","30.18","328","1.9","5","0.00","0.00"
"12:24:59","87.3","78.4","75","30.18","206","1.8","4","0.00","0.00"
"12:29:56","87.3","78","74","30.18","76","1.4","4","0.00","0.00"
"12:34:59","87.5","78.7","75.1","30.18","337","0.1","5","0.00","0.00"
"12:39:57","88","78","72.4","30.18","319","1.1","5","0.00","0.00"
"12:44:59","88.1","77.4","70.8","30.18","316","1.5","3.5","0.00","0.00"
"12:49:56","88.1","77.5","71","30.18","328","1","3.5","0.00","0.00"
"12:54:59","88.6","77.9","71","30.18","98","1.5","4","0.00","0.00"
"12:59:56","89","78.7","71.7","30.18","332","2","5","0.00","0.00"
"13:04:58","89.3","78.1","69.5","30.18","355","1.4","5","0.00","0.00"
"13:09:56","89.4","77.8","68.7","30.18","47","1.5","6","0.00","0.00"
"13:14:57","89.3","77.7","68.7","30.18","335","1.5","5","0.00","0.00"
"13:19:59","89.4","78.3","69.9","30.17","316","1.2","4","0.00","0.00"
"13:24:57","89.6","77.3","67.4","30.17","4","1.4","4","0.00","0.00"
"13:29:58","89.1","77.2","68","30.17","334","2.7","6","0.00","0.00"
"13:34:57","88.8","77.1","68.5","30.17","340","1.6","5.8","0.00","0.00"
"13:39:58","88.9","77.3","68.8","30.17","317","2.5","6","0.00","0.00"
"13:44:59","89.1","77.1","67.9","30.17","276","3","6","0.00","0.00"
"13:49:56","88.8","77.1","68.4","30.16","322","1.5","4","0.00","0.00"
"13:54:57","89","78.1","70.5","30.16","10","1.3","4","0.00","0.00"
"13:59:58","89.3","78.2","69.9","30.16","57","1.2","3.5","0.00","0.00"
"14:04:58","89.4","78.3","69.9","30.16","334","1.5","5","0.00","0.00"
"14:09:56","89.5","77.3","67.6","30.16","51","1.4","4","0.00","0.00"
"14:14:56","89.6","77.3","67.3","30.16","63","0.8","4","0.00","0.00"
"14:19:56","89.5","77.9","68.9","30.16","355","0.8","3.5","0.00","0.00"
"14:24:58","89.9","78.1","68.3","30.16","347","2","5","0.00","0.00"
"14:29:56","90.4","77.3","65.7","30.16","341","1.7","5","0.00","0.00"
"14:34:58","90.8","78.1","66.4","30.16","4","1.8","5","0.00","0.00"
"14:39:56","91.1","77.6","64.9","30.16","338","2.7","6","0.00","0.00"
"14:44:58","91","77.1","63.9","30.16","332","0.5","4.6","0.00","0.00"
"14:49:58","91","77.6","64.8","30.15","5","0","0","0.00","0.00"
"14:54:56","91.3","77.9","65.1","30.15","313","0","1","0.00","0.00"
"14:59:56","91.3","77.1","63.3","30.15","326","0.4","5","0.00","0.00"
"15:04:56","91.1","76.9","63.3","30.15","331","1.7","5","0.00","0.00"
"15:09:58","91.2","77.1","63.6","30.15","55","0","1.2","0.00","0.00"
"15:14:57","91.2","76.6","62.5","30.15","329","0","2","0.00","0.00"
"15:19:59","91.5","76.6","62","30.14","332","0.5","5","0.00","0.00"
"15:24:59","91.8","77.6","63.5","30.14","43","0.3","4.6","0.00","0.00"
"15:29:57","91.9","77.5","63","30.15","32","0","1.2","0.00","0.00"
"15:34:56","91.5","77.3","63.4","30.15","31","0.1","2.3","0.00","0.00"
"15:39:57","90.8","76.5","63","30.15","339","0.1","1.2","0.00","0.00"
"15:44:56","90.4","76.8","64.6","30.15","353","0","3","0.00","0.00"
"15:49:56","90.4","76.8","64.5","30.14","67","0","0","0.00","0.00"
"15:54:58","90.4","76.6","64","30.14","21","0","1.2","0.00","0.00"
"15:59:59","90.1","75.4","62.2","30.14","74","0","1.2","0.00","0.00"
"16:04:58","89.7","75.8","63.8","30.14","90","0","1.2","0.00","0.00"
"16:09:56","89.9","75.8","63.5","30.14","118","0.2","4","0.00","0.00"
"16:14:58","90.4","76.6","64.2","30.14","64","0","1","0.00","0.00"
"16:19:57","90.8","75.9","61.8","30.13","115","0.1","3.5","0.00","0.00"
"16:24:58","90.8","75.1","60.3","30.13","43","0","2.3","0.00","0.00"
"16:29:56","90.7","76","62.2","30.13","119","0.1","2.3","0.00","0.00"
"16:34:58","90.6","76.6","63.6","30.13","329","0","1.2","0.00","0.00"
"16:39:56","90.9","77","63.8","30.13","46","0","0","0.00","0.00"
"16:44:59","91.1","76.2","61.8","30.13","49","0","2","0.00","0.00"
"16:49:58","90.7","75.7","61.5","30.13","52","0","1.2","0.00","0.00"
"16:54:57","90.5","75.7","62","30.13","53","0","1","0.00","0.00"
"16:59:59","90.3","75.6","62.2","30.13","55","0","1.2","0.00","0.00"
"17:04:57","89.9","75.6","63.1","30.13","67","0","0","0.00","0.00"
"17:09:56","89.4","75.6","64.1","30.13","116","0.2","3.5","0.00","0.00"
"17:14:58","89.1","75.7","64.7","30.13","59","0","0","0.00","0.00"
"17:19:59","89.2","76.2","65.5","30.13","120","0.3","4","0.00","0.00"
"17:24:57","89.4","76.5","65.9","30.13","120","0.8","6","0.00","0.00"
"17:29:56","89.5","76.7","66","30.13","9","0","0","0.00","0.00"
"17:34:58","89.8","76.9","66","30.13","311","0","1","0.00","0.00"
"17:39:59","89.9","77.1","66.1","30.13","334","0.1","3","0.00","0.00"
"17:44:56","89.5","76.8","66.3","30.14","43","0","1.2","0.00","0.00"
"17:49:57","88.9","76.4","66.8","30.14","74","0","1.2","0.00","0.00"
"17:54:56","88.3","76.3","67.8","30.14","31","0","1.2","0.00","0.00"
"17:59:59","87.8","76.2","68.5","30.14","32","0","1","0.00","0.00"
"18:04:58","87.5","76.2","69.3","30.14","6","0","1","0.00","0.00"
"18:09:57","87.3","76","69.4","30.14","0","0","1.2","0.00","0.00"
"18:14:59","86.9","75.8","69.7","30.15","350","0","0","0.00","0.00"
"18:19:58","86.6","75.7","70.2","30.15","355","0","1.2","0.00","0.00"
"18:24:58","86.2","75.3","70","30.15","0","0.1","1.2","0.00","0.00"
"18:29:57","85.9","75.3","70.8","30.15","360","0","1.2","0.00","0.00"
"18:34:56","85.6","75.1","71","30.15","346","0.1","3.5","0.00","0.00"
"18:39:58","85.3","74.8","71","30.15","329","0.1","3.5","0.00","0.00"
"18:44:57","85","74.7","71.4","30.15","329","0","1.2","0.00","0.00"
"18:49:56","84.8","74.5","71.4","30.15","329","0","0","0.00","0.00"
"18:54:59","84.6","74.6","71.9","30.15","323","0","1.2","0.00","0.00"
"18:59:58","84.4","74.7","72.9","30.15","298","0","1.2","0.00","0.00"
"19:04:56","84","74.8","74","30.15","305","0.8","6","0.00","0.00"
"19:09:58","83.5","74.4","74.1","30.15","57","0","1.2","0.00","0.00"
"19:14:57","83","74.4","75.3","30.16","126","0","0","0.00","0.00"
"19:19:59","82.5","74.3","76.4","30.16","238","0.2","3","0.00","0.00"
"19:24:57","81.8","73.8","76.8","30.16","182","0.4","3.5","0.00","0.00"
"19:29:55","80.9","73.3","77.7","30.16","325","0.1","3.5","0.00","0.00"
"19:34:59","80.3","73.3","79.4","30.16","323","0","0","0.00","0.00"
"19:39:57","79.8","73.4","80.9","30.16","320","0","0","0.00","0.00"
"19:44:58","79.3","73.4","82","30.16","271","0","0","0.00","0.00"
"19:49:58","78.9","73.3","83.1","30.16","271","0","0","0.00","0.00"
"19:54:59","78.5","73.4","84.3","30.16","271","0","0","0.00","0.00"
"19:59:59","78.2","73.4","85.3","30.17","217","0.1","1.2","0.00","0.00"
"20:04:56","77.8","73.5","86.6","30.17","241","0","1.2","0.00","0.00"
"20:09:58","77.5","73.5","87.4","30.17","242","0","1.2","0.00","0.00"
"20:14:59","77.3","73.4","87.9","30.17","250","0","0","0.00","0.00"
"20:19:57","77.1","73.4","88.5","30.17","250","0","0","0.01","0.01"
"20:24:56","76.9","73.5","89.2","30.17","250","0","0","0.01","0.01"
"20:29:58","76.7","73.9","90.9","30.17","250","0","0","0.02","0.02"
"20:34:56","76.5","73.9","91.7","30.16","250","0","0","0.03","0.03"
"20:39:59","76.3","73.8","91.9","30.16","250","0","0","0.03","0.03"
"20:44:56","76.1","73.5","91.7","30.18","250","0","0","0.03","0.03"
"20:49:56","75.9","73.6","92.8","30.18","250","0","0","0.03","0.03"
"20:54:59","75.7","73.5","93","30.18","250","0","0","0.03","0.03"
"20:59:57","75.7","73.8","94","30.18","250","0","0","0.03","0.03"
"21:04:58","75.7","73.8","94","30.18","250","0","0","0.03","0.03"
"21:09:57","75.6","73.8","94","30.18","250","0","0","0.04","0.04"
"21:14:59","75.5","73.8","94.1","30.19","268","0.2","3.5","0.04","0.04"
"21:19:58","75.4","73.6","94","30.19","268","1","3.5","0.04","0.04"
"21:24:59","75.2","73.4","94","30.19","289","1","4","0.04","0.03"
"21:29:56","75.1","73.4","94.5","30.20","266","0.8","3.5","0.05","0.03"
"21:34:58","74.8","73","94.1","30.20","284","1.8","5","0.05","0.03"
"21:39:59","74.5","72.7","94","30.20","332","1.6","4.6","0.05","0.02"
"21:44:57","74.2","72.4","94","30.21","274","1.4","4","0.05","0.02"
"21:49:58","74","72.2","94","30.21","287","1.4","3.5","0.05","0.02"
"21:54:56","73.8","72","94","30.21","290","1.1","4","0.05","0.02"
"21:59:59","73.7","72","94.3","30.22","260","0.5","2.3","0.05","0.02"
"22:04:59","73.5","71.8","94.2","30.22","259","0","1.2","0.05","0.02"
"22:09:58","73.5","72","94.9","30.22","258","0","0","0.05","0.02"
"22:14:59","73.4","71.9","95","30.23","258","0","0","0.05","0.01"
"22:19:56","73.4","71.9","95","30.23","258","0.4","2.3","0.05","0.01"
"22:24:59","73.3","71.8","95","30.23","259","0.5","2.3","0.05","0.01"
"22:29:58","73.3","71.5","94.1","30.23","335","1","4","0.05","0.01"
"22:34:56","73.2","71.4","94.1","30.23","357","0.8","3","0.05","0.00"
"22:39:57","73.2","71.7","94.9","30.23","360","0.7","2.3","0.05","0.00"
"22:44:57","73.1","71.6","94.9","30.23","360","0.7","3.5","0.05","0.00"
"22:49:59","73.1","71.6","95","30.23","355","0.6","2.3","0.05","0.00"
"22:54:56","73","71.5","95","30.23","355","0","1.2","0.05","0.00"
"22:59:58","73","71.5","95","30.23","355","0","0","0.05","0.00"
"23:04:58","72.9","71.4","95","30.23","355","0","0","0.05","0.00"
"23:09:58","72.9","71.4","95","30.23","355","0","0","0.05","0.00"
"23:14:56","72.9","71.4","95","30.23","355","0","0","0.05","0.00"
"23:19:58","72.8","71.3","95","30.22","355","0","0","0.05","0.00"
"23:24:56","72.8","71.3","95","30.22","355","0","0","0.05","0.00"
"23:29:59","72.8","71.3","95.1","30.22","355","0","0","0.05","0.00"
"23:34:59","72.9","71.6","95.8","30.22","355","0","0","0.05","0.00"
"23:39:56","72.9","71.6","95.7","30.22","355","0","0","0.05","0.00"
"23:44:59","72.9","71.6","95.9","30.22","355","0","0","0.05","0.00"
"23:49:58","72.8","71.5","95.6","30.22","355","0","0","0.05","0.00"
"23:54:57","72.8","71.6","96","30.22","355","0","0","0.05","0.00"
"23:59:59","72.8","71.6","96","30.22","355","0","0","0.05","0.00"
